軌道要素
Epoch 2011 Mar. 20.0 TT = JDT 2455640.5
T 2011 Mar. 18.75868 TT MPC
q 3.4793840 (2000.0) P Q
n 0.10679848 Peri. 25.77212 -0.88147208 -0.46266219
a 4.3997297 Node 126.34387 +0.41041308 -0.84964371
e 0.2091823 Incl. 6.74532 +0.23359812 -0.25307957
P 9.23
From 35 observations 2002 Mar. 11-2012 May 21, mean residual 0".5.
|